FW6831 Weather Reports


Display with metric or nautical units.
time (UTC)temp
F
wind
direction
speed
MPH
gust
MPH
rain 1hr
in
rain 24hr
in
rain mn
in
humidity
%
barometer
mb
20200403075100 77 146 2.0 9.0 0.00 0.00 0.00 77 1010.0
20200403074625 77 82 2.0 9.0 0.00 0.00 0.00 77 1010.0
20200403074045 77 307 2.0 8.0 0.00 0.00 0.00 77 1010.0
20200403073545 77 334 2.0 9.0 0.00 0.00 0.00 77 1009.9
20200403073128 77 293 2.0 9.0 0.00 0.00 0.00 76 1009.8
20200403072551 77 75 3.0 8.0 0.00 0.00 0.00 76 1009.8
20200403072104 78 86 3.0 8.0 0.00 0.00 0.00 76 1009.7
20200403071733 78 81 2.0 7.0 0.00 0.00 0.00 75 1009.6
20200403071044 78 3 3.0 7.0 0.00 0.00 0.00 75 1009.6
20200403070545 78 57 1.0 6.0 0.00 0.00 0.00 74 1009.5
20200403070152 78 144 2.0 8.0 0.00 0.00 0.00 74 1009.6
20200403065544 78 327 2.0 8.0 0.00 0.00 0.00 73 1009.6
20200403065044 78 281 4.0 8.0 0.00 0.00 0.00 73 1009.7
20200403064630 79 2 3.0 8.0 0.00 0.00 0.00 73 1009.7
20200403064042 79 97 3.0 8.0 0.00 0.00 0.00 72 1009.6
20200403063548 79 297 1.0 6.0 0.00 0.00 0.00 72 1009.8
20200403063204 80 104 2.0 8.0 0.00 0.00 0.00 71 1009.8
20200403062543 80 352 3.0 8.0 0.00 0.00 0.00 71 1009.7
20200403062045 80 65 2.0 5.0 0.00 0.00 0.00 70 1009.6
20200403061611 81 338 1.0 8.0 0.00 0.00 0.00 69 1009.6
20200403061045 81 16 4.0 8.0 0.00 0.00 0.00 69 1009.7
20200403060544 81 307 3.0 7.0 0.00 0.00 0.00 68 1009.7
20200403060113 81 31 2.0 7.0 0.00 0.00 0.00 68 1009.7
20200403055558 81 218 3.0 7.0 0.00 0.00 0.00 68 1009.7
20200403055045 81 329 3.0 7.0 0.00 0.00 0.00 68 1009.6
20200403054746 81 101 2.0 8.0 0.00 0.00 0.00 67 1009.5
20200403054107 82 67 2.0 8.0 0.00 0.00 0.00 66 1009.6
20200403053545 82 284 2.0 6.0 0.00 0.00 0.00 66 1009.6
20200403053125 82 173 3.0 7.0 0.00 0.00 0.00 66 1009.5
20200403052550 82 54 2.0 7.0 0.00 0.00 0.00 66 1009.6
20200403052105 83 46 2.0 7.0 0.00 0.00 0.00 64 1009.6
20200403051618 82 223 3.0 9.0 0.00 0.00 0.00 65 1009.6
20200403051057 82 283 3.0 9.0 0.00 0.00 0.00 65 1009.7
20200403050543 83 360 2.0 8.0 0.00 0.00 0.00 63 1009.7
20200403050043 83 56 4.0 9.0 0.00 0.00 0.00 63 1009.8
20200403045558 84 106 3.0 9.0 0.00 0.00 0.00 61 1009.9
20200403045107 84 137 2.0 9.0 0.00 0.00 0.00 62 1009.8
20200403044631 84 45 3.0 9.0 0.00 0.00 0.00 61 1009.8
20200403044044 85 295 2.0 7.0 0.00 0.00 0.00 61 1009.8
20200403043553 84 16 3.0 10.0 0.00 0.00 0.00 60 1009.8
20200403043140 85 305 1.0 10.0 0.00 0.00 0.00 60 1009.8
20200403042544 86 75 1.0 6.0 0.00 0.00 0.00 60 1009.8
20200403042053 85 110 2.0 6.0 0.00 0.00 0.00 59 1009.8
20200403041559 86 120 3.0 6.0 0.00 0.00 0.00 59 1009.8
20200403041055 87 273 1.0 6.0 0.00 0.00 0.00 56 1010.0
20200403040554 86 323 1.0 5.0 0.00 0.00 0.00 57 1009.9
20200403040203 86 46 2.0 4.0 0.00 0.00 0.00 56 1010.0
20200403035545 86 44 0.0 4.0 0.00 0.00 0.00 56 1010.2
20200403035043 87 46 1.0 4.0 0.00 0.00 0.00 55 1010.3
20200403034559 86 197 2.0 6.0 0.00 0.00 0.00 55 1010.2
20200403034043 86 42 1.0 8.0 0.00 0.00 0.00 59 1010.2
20200403033545 86 103 2.0 8.0 0.00 0.00 0.00 58 1010.2
20200403033110 86 307 2.0 5.0 0.00 0.00 0.00 54 1010.2
20200403032543 86 278 2.0 6.0 0.00 0.00 0.00 54 1010.3
20200403032043 87 7 3.0 6.0 0.00 0.00 0.00 53 1010.4
20200403031615 87 262 2.0 7.0 0.00 0.00 0.00 54 1010.4
20200403031046 86 248 3.0 7.0 0.00 0.00 0.00 55 1010.4
20200403030543 86 327 2.0 6.0 0.00 0.00 0.00 54 1010.4
20200403030055 87 240 2.0 5.0 0.00 0.00 0.00 51 1010.4
20200403025606 88 248 2.0 5.0 0.00 0.00 0.00 51 1010.4
20200403025043 88 343 2.0 5.0 0.00 0.00 0.00 51 1010.5
20200403024559 87 316 1.0 5.0 0.00 0.00 0.00 53 1010.6
20200403024049 87 111 2.0 6.0 0.00 0.00 0.00 51 1010.6
20200403023548 87 341 3.0 6.0 0.00 0.00 0.00 51 1010.7
20200403023119 87 126 2.0 5.0 0.00 0.00 0.00 52 1010.8
20200403022601 86 293 2.0 5.0 0.00 0.00 0.00 52 1010.9
20200403022109 87 314 2.0 5.0 0.00 0.00 0.00 53 1010.9
20200403021608 86 213 1.0 4.0 0.00 0.00 0.00 56 1011.0
20200403021048 85 173 2.0 4.0 0.00 0.00 0.00 54 1011.1
20200403020545 85 277 1.0 8.0 0.00 0.00 0.00 55 1011.1
20200403020052 84 302 3.0 8.0 0.00 0.00 0.00 54 1011.3
20200403015543 84 323 1.0 6.0 0.00 0.00 0.00 56 1011.5
20200403015045 84 22 3.0 6.0 0.00 0.00 0.00 55 1011.6
20200403014628 85 136 3.0 6.0 0.00 0.00 0.00 55 1011.7
20200403014117 85 83 1.0 5.0 0.00 0.00 0.00 56 1011.7
20200403013549 84 324 2.0 7.0 0.00 0.00 0.00 58 1011.9
20200403013052 85 128 2.0 7.0 0.00 0.00 0.00 57 1012.0
20200403012547 84 104 2.0 9.0 0.00 0.00 0.00 57 1012.0
20200403012047 85 240 2.0 9.0 0.00 0.00 0.00 58 1012.2
20200403011713 84 39 2.0 6.0 0.00 0.00 0.00 59 1012.6
20200403011056 84 311 2.0 5.0 0.00 0.00 0.00 60 1012.6
20200403010546 83 259 2.0 7.0 0.00 0.00 0.00 61 1012.6
20200403010056 83 330 2.0 7.0 0.00 0.00 0.00 60 1012.8
20200403005543 84 280 2.0 7.0 0.00 0.00 0.00 59 1012.8
20200403005047 83 293 2.0 7.0 0.00 0.00 0.00 62 1012.8
20200403004608 83 70 2.0 5.0 0.00 0.00 0.00 58 1012.8
20200403004044 83 306 2.0 5.0 0.00 0.00 0.00 61 1012.9
20200403003549 82 290 2.0 4.0 0.00 0.00 0.00 62 1012.9
20200403003308 82 67 2.0 4.0 0.00 0.00 0.00 61 1012.9
20200403002558 83 219 2.0 5.0 0.00 0.00 0.00 61 1012.9
20200403002046 82 247 1.0 5.0 0.00 0.00 0.00 62 1012.9
20200403001620 83 316 2.0 4.0 0.00 0.00 0.00 60 1013.0
20200403001044 82 331 1.0 3.0 0.00 0.00 0.00 63 1013.0
20200403000544 82 309 1.0 6.0 0.00 0.00 0.00 64 1013.1
20200403000139 81 108 2.0 6.0 0.00 0.00 0.00 64 1013.1
20200402235555 81 96 1.0 5.0 0.00 0.00 0.00 64 1013.2
20200402235046 81 285 2.0 5.0 0.00 0.00 0.00 65 1013.3
20200402234636 81 339 1.0 5.0 0.00 0.00 0.00 67 1013.4
20200402234043 81 231 1.0 5.0 0.00 0.00 0.00 65 1013.4
20200402233609 80 317 2.0 4.0 0.00 0.00 0.00 67 1013.3
20200402233049 80 221 1.0 3.0 0.00 0.00 0.00 68 1013.2
20200402232545 80 246 1.0 3.0 0.00 0.00 0.00 69 1013.3
20200402232050 79 288 1.0 3.0 0.00 0.00 0.00 68 1013.3
20200402231614 79 259 1.0 6.0 0.00 0.00 0.00 70 1013.3
20200402231047 79 266 2.0 6.0 0.00 0.00 0.00 69 1013.3
20200402230544 79 342 1.0 4.0 0.00 0.00 0.00 71 1013.3
20200402230054 80 89 1.0 3.0 0.00 0.00 0.00 71 1013.3
20200402225544 79 94 0.0 3.0 0.00 0.00 0.00 75 1013.5
20200402225045 77 285 1.0 3.0 0.00 0.00 0.00 77 1013.5
20200402224619 77 173 1.0 3.0 0.00 0.00 0.00 78 1013.6
20200402224046 77 116 1.0 2.0 0.00 0.00 0.00 78 1013.7
20200402223555 77 217 1.0 2.0 0.00 0.00 0.00 79 1013.9
20200402223107 77 104 0.0 2.0 0.00 0.00 0.00 79 1013.9
20200402222603 76 52 1.0 2.0 0.00 0.00 0.00 80 1013.9
20200402222050 76 96 0.0 2.0 0.00 0.00 0.00 81 1013.9
20200402221604 75 106 1.0 2.0 0.00 0.00 0.00 82 1013.8
20200402221045 74 160 1.0 2.0 0.00 0.00 0.00 83 1013.6
20200402220552 74 131 1.0 1.0 0.00 0.00 0.00 83 1013.6
20200402220058 75 84 1.0 1.0 0.00 0.00 0.00 83 1013.7
20200402215546 74 77 0.0 2.0 0.00 0.00 0.00 84 1013.7
20200402215105 74 79 1.0 2.0 0.00 0.00 0.00 83 1013.8
20200402214622 74 313 0.0 1.0 0.00 0.00 0.00 86 1013.6
20200402214044 73 312 0.0 1.0 0.00 0.00 0.00 87 1013.7
20200402213550 72 314 0.0 1.0 0.00 0.00 0.00 90 1013.7
20200402213142 70 314 0.0 1.0 0.00 0.00 0.00 92 1013.6
20200402212545 70 314 0.0 1.0 0.00 0.00 0.00 93 1013.6
20200402212052 69 0 0.0 1.0 0.00 0.00 0.00 94 1013.5
20200402211739 68 0 0.0 1.0 0.00 0.00 0.00 95 1013.4
20200402211045 68 314 0.0 1.0 0.00 0.00 0.00 95 1013.4
20200402210546 67 0 0.0 0.0 0.00 0.00 0.00 95 1013.5
20200402210139 66 314 0.0 0.0 0.00 0.00 0.00 95 1013.4
20200402205545 66 314 0.0 1.0 0.00 0.00 0.00 96 1013.4
20200402205107 66 314 0.0 1.0 0.00 0.00 0.00 96 1013.3
20200402204742 65 312 0.0 1.0 0.00 0.00 0.00 96 1013.3
20200402204053 65 312 0.0 1.0 0.00 0.00 0.00 96 1013.3
20200402203545 65 312 0.0 1.0 0.00 0.00 0.00 96 1013.3
20200402203124 65 312 1.0 1.0 0.00 0.00 0.00 96 1013.3
20200402202546 65 315 1.0 1.0 0.00 0.00 0.00 96 1013.2
20200402202051 65 314 0.0 1.0 0.00 0.00 0.00 97 1013.1
20200402201558 64 314 0.0 1.0 0.00 0.00 0.00 97 1013.1
20200402201044 64 311 0.0 1.0 0.00 0.00 0.00 96 1013.1
20200402200546 64 311 1.0 1.0 0.00 0.00 0.00 96 1013.1
20200402200054 64 311 1.0 1.0 0.00 0.00 0.00 96 1013.0
20200402195545 64 320 0.0 1.0 0.00 0.00 0.00 96 1013.1
20200402195045 64 320 1.0 1.0 0.00 0.00 0.00 96 1013.0
20200402194707 64 307 1.0 1.0 0.00 0.00 0.00 96 1012.9
20200402194043 65 312 1.0 1.0 0.00 0.00 0.00 96 1012.9
20200402193552 65 312 1.0 1.0 0.00 0.00 0.00 96 1012.9
20200402193107 65 311 0.0 1.0 0.00 0.00 0.00 97 1012.9
20200402192545 65 0 0.0 1.0 0.00 0.00 0.00 97 1012.9
20200402192047 65 0 0.0 0.0 0.00 0.00 0.00 97 1012.9
20200402191617 65 312 0.0 0.0 0.00 0.00 0.00 97 1012.9
20200402191049 65 312 0.0 1.0 0.00 0.00 0.00 96 1012.8
20200402190545 65 312 0.0 1.0 0.00 0.00 0.00 96 1012.8
20200402190119 65 312 1.0 1.0 0.00 0.00 0.00 96 1012.8
20200402185549 65 310 0.0 1.0 0.00 0.00 0.00 96 1012.7
20200402185045 65 310 0.0 1.0 0.00 0.00 0.00 96 1012.7
20200402184602 65 310 0.0 1.0 0.00 0.00 0.00 96 1012.7
20200402184054 66 310 0.0 1.0 0.00 0.00 0.00 97 1012.7
20200402183542 66 310 0.0 1.0 0.00 0.00 0.00 96 1012.8
20200402183054 66 310 0.0 1.0 0.00 0.00 0.00 96 1012.8
20200402182550 66 0 0.0 1.0 0.00 0.00 0.00 96 1012.8
20200402182046 66 0 0.0 0.0 0.00 0.00 0.00 97 1012.8
20200402181609 66 0 0.0 0.0 0.00 0.00 0.00 97 1012.8
20200402181046 66 310 0.0 0.0 0.00 0.00 0.00 96 1012.7
20200402180551 66 310 0.0 1.0 0.00 0.00 0.00 96 1012.7
20200402180053 66 310 0.0 1.0 0.00 0.00 0.00 96 1012.8
20200402175546 66 310 0.0 1.0 0.00 0.00 0.00 96 1012.8
20200402175044 67 310 0.0 0.0 0.00 0.00 0.00 96 1012.7
20200402174743 67 0 0.0 0.0 0.00 0.00 0.00 97 1012.6
20200402174052 67 3 0.0 0.0 0.00 0.00 0.00 97 1012.7
20200402173549 67 0 0.0 0.0 0.00 0.00 0.00 97 1012.6
20200402173047 67 3 0.0 0.0 0.00 0.00 0.00 97 1012.8
20200402172551 67 0 0.0 0.0 0.00 0.00 0.00 97 1012.7
20200402172045 67 0 0.0 0.0 0.00 0.00 0.00 97 1012.7
20200402171611 67 3 0.0 0.0 0.00 0.00 0.00 96 1012.8
20200402171052 67 0 0.0 0.0 0.00 0.00 0.00 97 1013.0
20200402170545 67 0 0.0 0.0 0.00 0.00 0.00 97 1013.0
20200402170058 67 0 0.0 1.0 0.00 0.00 0.00 97 1013.0
20200402165553 67 314 0.0 1.0 0.00 0.00 0.00 96 1013.1
20200402165050 67 312 0.0 0.0 0.00 0.00 0.00 97 1013.2
20200402164632 66 0 0.0 0.0 0.00 0.00 0.00 97 1013.2
20200402164045 66 0 0.0 1.0 0.00 0.00 0.00 96 1013.3
20200402163545 66 0 0.0 1.0 0.00 0.00 0.00 95 1013.2
20200402163058 66 312 1.0 1.0 0.00 0.00 0.00 95 1013.2
20200402162545 66 312 1.0 1.0 0.00 0.00 0.00 95 1013.3
20200402162047 66 312 1.0 1.0 0.00 0.00 0.00 96 1013.3
20200402161558 67 312 0.0 1.0 0.00 0.00 0.00 96 1013.3
20200402161045 67 312 0.0 1.0 0.00 0.00 0.00 96 1013.3
20200402160545 67 312 1.0 1.0 0.00 0.00 0.00 96 1013.2
20200402160204 66 316 0.0 2.0 0.00 0.00 0.00 95 1013.1
20200402155600 67 316 1.0 2.0 0.00 0.00 0.00 95 1013.3
20200402155058 67 300 1.0 2.0 0.00 0.00 0.00 95 1013.3
20200402154607 67 299 1.0 1.0 0.00 0.00 0.00 95 1013.4
20200402154043 67 0 0.0 0.0 0.00 0.00 0.00 96 1013.3
20200402153544 67 0 0.0 0.0 0.00 0.00 0.00 95 1013.3
20200402153138 67 0 0.0 0.0 0.00 0.00 0.00 96 1013.5
20200402152544 67 0 0.0 0.0 0.00 0.00 0.00 95 1013.4
20200402152051 67 315 0.0 1.0 0.00 0.00 0.00 95 1013.5
20200402151638 67 315 0.0 1.0 0.00 0.00 0.00 95 1013.5
20200402151101 67 315 0.0 1.0 0.00 0.00 0.00 95 1013.6
20200402150545 67 315 1.0 1.0 0.00 0.00 0.00 95 1013.7
20200402150159 67 315 1.0 1.0 0.00 0.00 0.00 95 1013.6
20200402145549 67 315 1.0 1.0 0.00 0.00 0.00 95 1013.8
20200402145056 67 321 0.0 1.0 0.00 0.00 0.00 95 1013.7
20200402144620 67 0 0.0 1.0 0.00 0.00 0.00 95 1013.7
20200402144045 67 321 1.0 1.0 0.00 0.00 0.00 95 1013.7
20200402143601 67 323 0.0 1.0 0.00 0.00 0.00 95 1013.8
20200402143110 67 323 0.0 0.0 0.00 0.00 0.00 96 1013.8
20200402142545 67 0 0.0 0.0 0.00 0.00 0.00 95 1013.7
20200402142047 67 0 0.0 1.0 0.00 0.00 0.00 95 1013.9
20200402141627 67 0 0.0 1.0 0.00 0.00 0.00 95 1013.9
20200402141045 67 323 0.0 1.0 0.00 0.00 0.00 95 1014.0
20200402140550 67 323 0.0 1.0 0.00 0.00 0.00 95 1014.1
20200402140107 67 323 1.0 2.0 0.00 0.00 0.00 94 1014.3
20200402135545 67 323 1.0 2.0 0.00 0.00 0.00 94 1014.4
20200402135043 67 316 1.0 1.0 0.00 0.00 0.00 94 1014.3
20200402134658 67 325 0.0 1.0 0.00 0.00 0.00 94 1014.2
20200402134047 67 297 1.0 1.0 0.00 0.00 0.00 94 1014.2
20200402133545 67 310 1.0 2.0 0.00 0.00 0.00 94 1014.3
20200402133128 68 323 1.0 2.0 0.00 0.00 0.00 93 1014.3
20200402132551 68 293 0.0 1.0 0.00 0.00 0.00 94 1014.3
20200402132042 68 310 0.0 1.0 0.00 0.00 0.00 95 1014.3
20200402131640 68 0 0.0 1.0 0.00 0.00 0.00 94 1014.3
20200402131045 68 0 0.0 1.0 0.00 0.00 0.00 94 1014.3
20200402130545 68 310 0.0 1.0 0.00 0.00 0.00 94 1014.6
20200402130321 68 310 0.0 0.0 0.00 0.00 0.00 93 1014.6
20200402125546 68 310 0.0 1.0 0.00 0.00 0.00 93 1014.5
20200402125055 68 310 0.0 1.0 0.00 0.00 0.00 93 1014.7
20200402124621 68 310 1.0 1.0 0.00 0.00 0.00 93 1014.8
20200402124049 69 315 1.0 1.0 0.00 0.00 0.00 93 1014.9
20200402123545 69 0 0.0 0.0 0.00 0.00 0.00 94 1014.9
20200402123118 69 0 0.0 1.0 0.00 0.00 0.00 94 1014.9
20200402122544 68 0 0.0 1.0 0.00 0.00 0.00 94 1014.9
20200402122043 68 0 0.0 1.0 0.00 0.00 0.00 93 1015.1
20200402121558 68 314 0.0 1.0 0.00 0.00 0.00 92 1015.1
20200402121045 68 314 0.0 1.0 0.00 0.00 0.00 92 1015.1
20200402120544 68 314 1.0 1.0 0.00 0.00 0.00 91 1015.1
20200402120156 68 315 0.0 2.0 0.00 0.00 0.00 91 1014.9
20200402115547 68 307 1.0 2.0 0.00 0.00 0.00 91 1014.9
20200402115058 69 315 1.0 2.0 0.00 0.00 0.00 90 1015.0
20200402114608 69 319 1.0 2.0 0.00 0.00 0.00 89 1014.9
20200402114045 70 303 1.0 2.0 0.00 0.00 0.00 89 1014.8
20200402113544 70 316 2.0 2.0 0.00 0.00 0.00 87 1014.7
20200402113149 71 281 1.0 4.0 0.00 0.00 0.00 86 1014.7
20200402112545 72 39 1.0 5.0 0.00 0.00 0.00 89 1014.6
20200402112044 72 11 0.0 5.0 0.00 0.00 0.00 89 1014.7
20200402111610 71 99 2.0 3.0 0.00 0.00 0.00 91 1014.6
20200402111044 71 58 0.0 5.0 0.00 0.00 0.00 90 1014.6
20200402110545 71 292 1.0 5.0 0.00 0.00 0.00 89 1014.7
20200402110118 71 17 1.0 2.0 0.00 0.00 0.00 90 1014.7
20200402105556 70 40 0.0 1.0 0.00 0.00 0.00 89 1014.8
20200402105046 70 53 0.0 1.0 0.00 0.00 0.00 90 1014.9
20200402104545 70 0 0.0 1.0 0.00 0.00 0.00 90 1014.9
20200402104050 70 0 0.0 1.0 0.00 0.00 0.00 89 1015.0
20200402103605 70 319 0.0 1.0 0.00 0.00 0.00 89 1015.0
20200402103123 70 0 0.0 2.0 0.00 0.00 0.00 88 1014.8
20200402102547 70 306 1.0 2.0 0.00 0.00 0.00 88 1014.9
20200402102044 70 316 1.0 2.0 0.00 0.00 0.00 88 1014.7
20200402101622 70 278 1.0 2.0 0.00 0.00 0.00 88 1014.7
20200402101043 70 311 1.0 2.0 0.00 0.00 0.00 88 1014.7
20200402100550 70 313 1.0 1.0 0.00 0.00 0.00 87 1014.7
20200402100125 70 318 0.0 2.0 0.00 0.00 0.00 87 1014.6
20200402095545 70 318 1.0 2.0 0.00 0.00 0.00 86 1014.8
20200402095119 71 321 1.0 2.0 0.00 0.00 0.00 85 1014.9
20200402094549 71 311 1.0 2.0 0.00 0.00 0.00 84 1014.9
20200402094103 72 317 1.0 2.0 0.00 0.00 0.00 83 1014.8
20200402093545 72 108 0.0 1.0 0.00 0.00 0.00 83 1014.7
20200402093124 73 0 0.0 2.0 0.00 0.00 0.00 83 1014.8
20200402092555 73 0 0.0 2.0 0.00 0.00 0.00 82 1014.8
20200402092044 73 115 0.0 2.0 0.00 0.00 0.00 82 1014.7
20200402091621 73 60 1.0 4.0 0.00 0.00 0.00 82 1014.6
20200402091044 73 33 1.0 4.0 0.00 0.00 0.00 82 1014.7
20200402090549 73 85 1.0 5.0 0.00 0.00 0.00 82 1014.7
20200402090107 73 67 1.0 5.0 0.00 0.00 0.00 81 1014.7
20200402085542 73 49 1.0 3.0 0.00 0.00 0.00 81 1014.8
20200402085045 73 36 0.0 1.0 0.00 0.00 0.00 81 1014.9
20200402084612 73 0 0.0 1.0 0.00 0.00 0.00 80 1014.8
20200402084044 74 328 0.0 1.0 0.00 0.00 0.00 79 1014.8
20200402083610 74 0 0.0 1.0 0.00 0.00 0.00 78 1014.7
20200402083148 74 310 0.0 3.0 0.00 0.00 0.00 78 1014.7
20200402082554 74 0 0.0 3.0 0.00 0.00 0.00 78 1014.7
20200402082046 74 24 0.0 2.0 0.00 0.00 0.00 78 1014.6
20200402081751 74 0 0.0 2.0 0.00 0.00 0.00 78 1014.6
20200402081044 75 354 0.0 2.0 0.00 0.00 0.00 78 1014.6
20200402080545 75 4 1.0 2.0 0.00 0.00 0.00 78 1014.6
20200402080138 75 44 0.0 2.0 0.00 0.00 0.00 77 1014.5
20200402075546 75 306 1.0 2.0 0.00 0.00 0.00 76 1014.4